date,time,SUV Intensity [MED/Hr],UV Index,Daily total [MED],Since Last [MED]
18/05/2023,00:01:54,0.000,0.0,0.0,0.0
18/05/2023,00:02:54,0.000,0.0,0.0,0.0
18/05/2023,00:03:53,0.000,0.0,0.0,0.0
18/05/2023,00:04:54,-0.001,0.0,0.0,0.0
18/05/2023,00:05:54,0.000,0.0,0.0,0.0
18/05/2023,00:06:54,0.000,0.0,0.0,0.0
18/05/2023,00:07:54,0.000,0.0,0.0,0.0
18/05/2023,00:08:54,0.001,0.0,0.0,0.0
18/05/2023,00:09:54,-0.000,0.0,0.0,0.0
18/05/2023,00:10:54,0.001,0.0,0.0,0.0
18/05/2023,00:11:54,0.000,0.0,0.0,0.0
18/05/2023,00:12:53,0.000,0.0,0.0,0.0
18/05/2023,00:13:53,0.000,0.0,0.0,0.0
18/05/2023,00:14:54,0.001,0.0,0.0,0.0
18/05/2023,00:15:54,0.000,0.0,0.0,0.0
18/05/2023,00:16:54,0.000,0.0,0.0,0.0
18/05/2023,00:17:54,0.000,0.0,0.0,0.0
18/05/2023,00:18:54,0.000,0.0,0.0,0.0
18/05/2023,00:19:54,0.000,0.0,0.0,0.0
18/05/2023,00:20:54,0.000,0.0,0.0,0.0
18/05/2023,00:21:53,0.000,0.0,0.0,0.0
18/05/2023,00:22:53,0.000,0.0,0.0,0.0
18/05/2023,00:23:54,0.000,0.0,0.0,0.0
18/05/2023,00:24:54,0.000,0.0,0.0,0.0
18/05/2023,00:25:54,0.000,0.0,0.0,0.0
18/05/2023,00:26:54,0.000,0.0,0.0,0.0
18/05/2023,00:27:54,0.000,0.0,0.0,0.0
18/05/2023,00:28:54,0.000,0.0,0.0,0.0
18/05/2023,00:29:54,-0.001,0.0,0.0,0.0
18/05/2023,00:30:54,0.001,0.0,0.0,0.0
18/05/2023,00:31:54,0.000,0.0,0.0,0.0
18/05/2023,00:32:54,0.001,0.0,0.0,0.0
18/05/2023,00:33:54,0.000,0.0,0.0,0.0
18/05/2023,00:34:54,0.000,0.0,0.0,0.0
18/05/2023,00:35:54,0.000,0.0,0.0,0.0
18/05/2023,00:36:53,-0.001,0.0,0.0,0.0
18/05/2023,00:37:54,0.000,0.0,0.0,0.0
18/05/2023,00:38:54,0.001,0.0,0.0,0.0
18/05/2023,00:39:54,-0.001,0.0,0.0,0.0
18/05/2023,00:40:54,0.000,0.0,0.0,0.0
18/05/2023,00:41:54,-0.000,0.0,0.0,0.0
18/05/2023,00:42:54,-0.000,0.0,0.0,0.0
18/05/2023,00:43:54,0.000,0.0,0.0,0.0
18/05/2023,00:44:54,0.000,0.0,0.0,0.0
18/05/2023,00:45:54,0.000,0.0,0.0,0.0
18/05/2023,00:46:54,-0.000,0.0,0.0,0.0
18/05/2023,00:47:54,0.000,0.0,0.0,0.0
18/05/2023,00:48:54,0.000,0.0,0.0,0.0
18/05/2023,00:49:54,0.001,0.0,0.0,0.0
18/05/2023,00:50:54,0.001,0.0,0.0,0.0
18/05/2023,00:51:53,0.001,0.0,0.0,0.0
18/05/2023,00:52:54,0.000,0.0,0.0,0.0
18/05/2023,00:53:54,-0.001,0.0,0.0,0.0
18/05/2023,00:54:54,-0.000,0.0,0.0,0.0
18/05/2023,00:55:54,0.000,0.0,0.0,0.0
18/05/2023,00:56:54,0.001,0.0,0.0,0.0
18/05/2023,00:57:54,0.000,0.0,0.0,0.0
18/05/2023,00:58:54,0.000,0.0,0.0,0.0
18/05/2023,00:59:54,-0.001,0.0,0.0,0.0
18/05/2023,01:00:54,0.000,0.0,0.0,0.0
18/05/2023,01:01:54,0.000,0.0,0.0,0.0
18/05/2023,01:02:54,0.000,0.0,0.0,0.0
18/05/2023,01:03:54,-0.000,0.0,0.0,0.0
18/05/2023,01:04:54,0.001,0.0,0.0,0.0
18/05/2023,01:05:54,0.000,0.0,0.0,0.0
18/05/2023,01:06:54,0.000,0.0,0.0,0.0
18/05/2023,01:07:54,0.001,0.0,0.0,0.0
18/05/2023,01:08:54,0.000,0.0,0.0,0.0
18/05/2023,01:09:54,-0.001,0.0,0.0,0.0
18/05/2023,01:10:54,0.000,0.0,0.0,0.0
18/05/2023,01:11:54,0.000,0.0,0.0,0.0
18/05/2023,01:12:54,-0.001,0.0,0.0,0.0
18/05/2023,01:13:54,0.000,0.0,0.0,0.0
18/05/2023,01:14:54,0.000,0.0,0.0,0.0
18/05/2023,01:15:54,-0.000,0.0,0.0,0.0
18/05/2023,01:16:54,0.000,0.0,0.0,0.0
18/05/2023,01:17:54,0.000,0.0,0.0,0.0
18/05/2023,01:18:54,0.001,0.0,0.0,0.0
18/05/2023,01:19:54,0.001,0.0,0.0,0.0
18/05/2023,01:20:54,-0.001,0.0,0.0,0.0
18/05/2023,01:21:54,0.000,0.0,0.0,0.0
18/05/2023,01:22:53,0.000,0.0,0.0,0.0
18/05/2023,01:23:54,-0.000,0.0,0.0,0.0
18/05/2023,01:24:54,0.000,0.0,0.0,0.0
18/05/2023,01:25:54,0.000,0.0,0.0,0.0
18/05/2023,01:26:54,0.000,0.0,0.0,0.0
18/05/2023,01:27:54,0.000,0.0,0.0,0.0
18/05/2023,01:28:54,0.001,0.0,0.0,0.0
18/05/2023,01:29:54,0.000,0.0,0.0,0.0
18/05/2023,01:30:54,0.000,0.0,0.0,0.0
18/05/2023,01:31:54,0.001,0.0,0.0,0.0
18/05/2023,01:32:54,0.001,0.0,0.0,0.0
18/05/2023,01:33:54,0.000,0.0,0.0,0.0
18/05/2023,01:34:54,-0.001,0.0,0.0,0.0
18/05/2023,01:35:53,-0.001,0.0,0.0,0.0
18/05/2023,01:36:54,0.001,0.0,0.0,0.0
18/05/2023,01:37:54,0.000,0.0,0.0,0.0
18/05/2023,01:38:54,0.000,0.0,0.0,0.0
18/05/2023,01:39:54,0.000,0.0,0.0,0.0
18/05/2023,01:40:54,0.001,0.0,0.0,0.0
18/05/2023,01:41:54,0.000,0.0,0.0,0.0
18/05/2023,01:42:54,0.001,0.0,0.0,0.0
18/05/2023,01:43:54,0.000,0.0,0.0,0.0
18/05/2023,01:44:54,0.000,0.0,0.0,0.0
18/05/2023,01:45:54,0.000,0.0,0.0,0.0
18/05/2023,01:46:54,-0.000,0.0,0.0,0.0
18/05/2023,01:47:54,0.000,0.0,0.0,0.0
18/05/2023,01:49:16,0.000,0.0,0.0,0.0
18/05/2023,01:50:54,0.000,0.0,0.0,0.0
18/05/2023,01:51:54,0.000,0.0,0.0,0.0
18/05/2023,01:52:54,0.000,0.0,0.0,0.0
18/05/2023,01:53:54,0.000,0.0,0.0,0.0
18/05/2023,01:54:54,0.000,0.0,0.0,0.0
18/05/2023,01:55:54,-0.001,0.0,0.0,0.0
18/05/2023,01:56:54,-0.001,0.0,0.0,0.0
18/05/2023,01:57:54,-0.001,0.0,0.0,0.0
18/05/2023,01:58:54,0.000,0.0,0.0,0.0
18/05/2023,01:59:54,-0.001,0.0,0.0,0.0
18/05/2023,02:00:54,0.000,0.0,0.0,0.0
18/05/2023,02:01:54,0.000,0.0,0.0,0.0
18/05/2023,02:02:54,0.000,0.0,0.0,0.0
18/05/2023,02:03:54,0.001,0.0,0.0,0.0
18/05/2023,02:04:54,0.001,0.0,0.0,0.0
18/05/2023,02:05:54,0.001,0.0,0.0,0.0
18/05/2023,02:06:54,0.000,0.0,0.0,0.0
18/05/2023,02:07:54,0.000,0.0,0.0,0.0
18/05/2023,02:08:54,-0.000,0.0,0.0,0.0
18/05/2023,02:09:54,0.000,0.0,0.0,0.0
18/05/2023,02:10:54,0.001,0.0,0.0,0.0
18/05/2023,02:11:54,-0.001,0.0,0.0,0.0
18/05/2023,02:12:55,0.000,0.0,0.0,0.0
18/05/2023,02:13:54,0.001,0.0,0.0,0.0
18/05/2023,02:14:54,0.000,0.0,0.0,0.0
18/05/2023,02:15:54,0.000,0.0,0.0,0.0
18/05/2023,02:16:54,0.000,0.0,0.0,0.0
18/05/2023,02:17:54,0.000,0.0,0.0,0.0
18/05/2023,02:18:54,0.000,0.0,0.0,0.0
18/05/2023,02:19:54,0.000,0.0,0.0,0.0
18/05/2023,02:20:54,0.001,0.0,0.0,0.0
18/05/2023,02:21:54,0.001,0.0,0.0,0.0
18/05/2023,02:22:54,0.001,0.0,0.0,0.0
18/05/2023,02:23:54,0.001,0.0,0.0,0.0
18/05/2023,02:24:54,0.000,0.0,0.0,0.0
18/05/2023,02:25:54,0.001,0.0,0.0,0.0
18/05/2023,02:26:54,0.002,0.0,0.0,0.0
18/05/2023,02:27:54,0.000,0.0,0.0,0.0
18/05/2023,02:28:54,-0.000,0.0,0.0,0.0
18/05/2023,02:29:54,0.001,0.0,0.0,0.0
18/05/2023,02:30:54,0.000,0.0,0.0,0.0
18/05/2023,02:31:54,0.000,0.0,0.0,0.0
18/05/2023,02:32:54,0.000,0.0,0.0,0.0
18/05/2023,02:33:54,0.002,0.0,0.0,0.0
18/05/2023,02:34:54,0.000,0.0,0.0,0.0
18/05/2023,02:35:54,0.000,0.0,0.0,0.0
18/05/2023,02:36:54,0.000,0.0,0.0,0.0
18/05/2023,02:37:54,0.001,0.0,0.0,0.0
18/05/2023,02:38:54,0.000,0.0,0.0,0.0
18/05/2023,02:39:54,-0.001,0.0,0.0,0.0
18/05/2023,02:40:54,0.001,0.0,0.0,0.0
18/05/2023,02:41:54,-0.000,0.0,0.0,0.0
18/05/2023,02:42:54,0.001,0.0,0.0,0.0
18/05/2023,02:43:54,0.002,0.0,0.0,0.0
18/05/2023,02:44:54,0.001,0.0,0.0,0.0
18/05/2023,02:45:54,0.001,0.0,0.0,0.0
18/05/2023,02:46:54,0.001,0.0,0.0,0.0
18/05/2023,02:47:54,0.000,0.0,0.0,0.0
18/05/2023,02:48:54,0.001,0.0,0.0,0.0
18/05/2023,02:49:54,0.001,0.0,0.0,0.0
18/05/2023,02:50:54,0.000,0.0,0.0,0.0
18/05/2023,02:51:54,0.001,0.0,0.0,0.0
18/05/2023,02:52:54,-0.000,0.0,0.0,0.0
18/05/2023,02:53:54,0.001,0.0,0.0,0.0
18/05/2023,02:54:54,0.001,0.0,0.0,0.0
18/05/2023,02:55:54,0.001,0.0,0.0,0.0
18/05/2023,02:56:54,0.001,0.0,0.0,0.0
18/05/2023,02:57:55,0.001,0.0,0.0,0.0
18/05/2023,02:58:54,0.001,0.0,0.0,0.0
18/05/2023,02:59:53,0.001,0.0,0.0,0.0
18/05/2023,03:00:54,0.000,0.0,0.0,0.0
18/05/2023,03:01:54,0.001,0.0,0.0,0.0
18/05/2023,03:02:54,0.001,0.0,0.0,0.0
18/05/2023,03:03:54,0.001,0.0,0.0,0.0
18/05/2023,03:04:54,0.001,0.0,0.0,0.0
18/05/2023,03:05:55,0.002,0.0,0.0,0.0
18/05/2023,03:06:55,0.001,0.0,0.0,0.0
18/05/2023,03:07:54,0.002,0.0,0.0,0.0
18/05/2023,03:08:54,0.000,0.0,0.0,0.0
18/05/2023,03:09:54,-0.000,0.0,0.0,0.0
18/05/2023,03:10:54,0.000,0.0,0.0,0.0
18/05/2023,03:11:54,0.001,0.0,0.0,0.0
18/05/2023,03:12:54,0.002,0.0,0.0,0.0
18/05/2023,03:13:54,0.001,0.0,0.0,0.0
18/05/2023,03:14:54,0.000,0.0,0.0,0.0
18/05/2023,03:15:54,0.001,0.0,0.0,0.0
18/05/2023,03:16:54,0.000,0.0,0.0,0.0
18/05/2023,03:17:54,0.000,0.0,0.0,0.0
18/05/2023,03:18:54,0.001,0.0,0.0,0.0
18/05/2023,03:19:55,0.001,0.0,0.0,0.0
18/05/2023,03:20:54,0.001,0.0,0.0,0.0
18/05/2023,03:21:54,0.001,0.0,0.0,0.0
18/05/2023,03:22:54,0.000,0.0,0.0,0.0
18/05/2023,03:23:54,0.001,0.0,0.0,0.0
18/05/2023,03:24:54,0.001,0.0,0.0,0.0
18/05/2023,03:25:54,0.001,0.0,0.0,0.0
18/05/2023,03:26:54,0.001,0.0,0.0,0.0
18/05/2023,03:27:54,0.001,0.0,0.0,0.0
18/05/2023,03:28:54,0.001,0.0,0.0,0.0
18/05/2023,03:29:54,0.001,0.0,0.0,0.0
18/05/2023,03:30:54,0.001,0.0,0.0,0.0
18/05/2023,03:31:55,0.001,0.0,0.0,0.0
18/05/2023,03:32:54,0.002,0.0,0.0,0.0
18/05/2023,03:33:55,0.001,0.0,0.0,0.0
18/05/2023,03:34:54,0.001,0.0,0.0,0.0
18/05/2023,03:35:54,0.001,0.0,0.0,0.0
18/05/2023,03:36:54,0.001,0.0,0.0,0.0
18/05/2023,03:37:54,0.001,0.0,0.0,0.0
18/05/2023,03:38:53,0.001,0.0,0.0,0.0
18/05/2023,03:39:54,0.001,0.0,0.0,0.0
18/05/2023,03:40:54,0.000,0.0,0.0,0.0
18/05/2023,03:41:54,0.001,0.0,0.0,0.0
18/05/2023,03:42:54,0.001,0.0,0.0,0.0
18/05/2023,03:43:55,0.001,0.0,0.0,0.0
18/05/2023,03:44:54,0.001,0.0,0.0,0.0
18/05/2023,03:45:55,0.001,0.0,0.0,0.0
18/05/2023,03:46:54,0.001,0.0,0.0,0.0
18/05/2023,03:47:54,0.002,0.0,0.0,0.0
18/05/2023,03:48:54,-0.000,0.0,0.0,0.0
18/05/2023,03:49:55,0.001,0.0,0.0,0.0
18/05/2023,03:50:54,0.001,0.0,0.0,0.0
18/05/2023,03:51:54,0.001,0.0,0.0,0.0
18/05/2023,03:52:54,0.002,0.0,0.0,0.0
18/05/2023,03:53:54,0.001,0.0,0.0,0.0
18/05/2023,03:54:54,0.001,0.0,0.0,0.0
18/05/2023,03:55:55,0.001,0.0,0.0,0.0
18/05/2023,03:56:54,0.002,0.0,0.0,0.0
18/05/2023,03:57:54,0.002,0.0,0.0,0.0
18/05/2023,03:58:55,0.002,0.0,0.0,0.0
18/05/2023,03:59:54,0.001,0.0,0.0,0.0
18/05/2023,04:00:54,0.002,0.0,0.0,0.0
18/05/2023,04:01:54,0.002,0.0,0.0,0.0
18/05/2023,04:02:54,0.002,0.0,0.0,0.0
18/05/2023,04:03:55,0.002,0.0,0.0,0.0
18/05/2023,04:04:55,0.002,0.0,0.0,0.0
18/05/2023,04:05:54,0.002,0.0,0.0,0.0
18/05/2023,04:06:55,0.003,0.0,0.0,0.0
18/05/2023,04:07:54,0.003,0.0,0.0,0.0
18/05/2023,04:08:54,0.002,0.0,0.0,0.0
18/05/2023,04:09:54,0.002,0.0,0.0,0.0
18/05/2023,04:10:55,0.003,0.0,0.0,0.0
18/05/2023,04:11:54,0.003,0.0,0.0,0.0
18/05/2023,04:12:55,0.003,0.0,0.0,0.0
18/05/2023,04:13:55,0.003,0.0,0.0,0.0
18/05/2023,04:14:55,0.003,0.0,0.0,0.0
18/05/2023,04:15:54,0.003,0.0,0.0,0.0
18/05/2023,04:16:55,0.004,0.0,0.0,0.0
18/05/2023,04:17:55,0.004,0.0,0.0,0.0
18/05/2023,04:18:54,0.005,0.0,0.0,0.0
18/05/2023,04:19:54,0.004,0.0,0.0,0.0
18/05/2023,04:20:54,0.004,0.0,0.0,0.0
18/05/2023,04:21:54,0.004,0.0,0.0,0.0
18/05/2023,04:22:54,0.005,0.0,0.0,0.0
18/05/2023,04:23:54,0.005,0.0,0.0,0.0
18/05/2023,04:24:54,0.004,0.0,0.0,0.0
18/05/2023,04:25:54,0.004,0.0,0.0,0.0
18/05/2023,04:26:54,0.006,0.0,0.0,0.0
18/05/2023,04:27:54,0.005,0.0,0.0,0.0
18/05/2023,04:28:54,0.006,0.0,0.0,0.0
18/05/2023,04:29:54,0.006,0.0,0.0,0.0
18/05/2023,04:30:55,0.006,0.0,0.0,0.0
18/05/2023,04:31:55,0.006,0.0,0.0,0.0
18/05/2023,04:32:55,0.007,0.0,0.0,0.0
18/05/2023,04:33:54,0.007,0.0,0.0,0.0
18/05/2023,04:34:54,0.008,0.0,0.001,0.001
18/05/2023,04:35:55,0.008,0.0,0.001,0.0
18/05/2023,04:36:54,0.008,0.0,0.001,0.0
18/05/2023,04:37:54,0.008,0.0,0.001,0.0
18/05/2023,04:38:54,0.009,0.0,0.001,0.0
18/05/2023,04:39:54,0.009,0.0,0.001,0.0
18/05/2023,04:40:54,0.009,0.0,0.001,0.0
18/05/2023,04:41:54,0.009,0.0,0.002,0.001
18/05/2023,04:42:54,0.011,0.0,0.002,0.0
18/05/2023,04:43:55,0.012,0.0,0.002,0.0
18/05/2023,04:44:55,0.011,0.0,0.002,0.0
18/05/2023,04:45:54,0.011,0.0,0.002,0.0
18/05/2023,04:46:54,0.012,0.0,0.002,0.0
18/05/2023,04:47:54,0.012,0.0,0.003,0.001
18/05/2023,04:48:54,0.012,0.0,0.003,0.0
18/05/2023,04:49:54,0.013,0.0,0.003,0.0
18/05/2023,04:50:55,0.015,0.0,0.003,0.0
18/05/2023,04:51:54,0.014,0.0,0.003,0.0
18/05/2023,04:52:55,0.013,0.0,0.004,0.001
18/05/2023,04:53:55,0.014,0.0,0.004,0.0
18/05/2023,04:54:54,0.015,0.0,0.004,0.0
18/05/2023,04:55:54,0.017,0.0,0.004,0.0
18/05/2023,04:56:54,0.016,0.0,0.005,0.001
18/05/2023,04:57:55,0.018,0.0,0.005,0.0
18/05/2023,04:58:54,0.018,0.0,0.005,0.0
18/05/2023,04:59:54,0.018,0.0,0.006,0.001
18/05/2023,05:00:55,0.019,0.0,0.006,0.0
18/05/2023,05:01:54,0.019,0.0,0.006,0.0
18/05/2023,05:02:54,0.020,0.0,0.007,0.001
18/05/2023,05:03:53,0.020,0.0,0.007,0.0
18/05/2023,05:05:17,0.021,0.0,0.007,0.0
18/05/2023,05:06:54,0.023,0.0,0.008,0.001
18/05/2023,05:07:55,0.023,0.0,0.008,0.0
18/05/2023,05:08:54,0.024,0.0,0.009,0.001
18/05/2023,05:09:55,0.025,0.0,0.009,0.0
18/05/2023,05:10:55,0.026,0.0,0.01,0.001
18/05/2023,05:11:54,0.026,0.0,0.01,0.0
18/05/2023,05:12:54,0.028,0.0,0.01,0.0
18/05/2023,05:13:54,0.028,0.0,0.011,0.001
18/05/2023,05:14:55,0.029,0.0,0.011,0.0
18/05/2023,05:15:55,0.030,0.0,0.012,0.001
18/05/2023,05:16:54,0.031,0.0,0.012,0.0
18/05/2023,05:17:54,0.031,0.0,0.013,0.001
18/05/2023,05:18:54,0.032,0.0,0.013,0.0
18/05/2023,05:19:54,0.034,0.0,0.014,0.001
18/05/2023,05:20:55,0.034,0.0,0.015,0.001
18/05/2023,05:21:55,0.035,0.0,0.015,0.0
18/05/2023,05:22:54,0.036,0.0,0.016,0.001
18/05/2023,05:23:54,0.038,0.0,0.016,0.0
18/05/2023,05:24:54,0.037,0.0,0.017,0.001
18/05/2023,05:25:54,0.039,0.0,0.018,0.001
18/05/2023,05:26:55,0.040,0.0,0.018,0.0
18/05/2023,05:27:55,0.041,0.0,0.019,0.001
18/05/2023,05:28:56,0.043,0.0,0.02,0.001
18/05/2023,05:29:54,0.044,0.0,0.02,0.0
18/05/2023,05:30:55,0.046,0.0,0.021,0.001
18/05/2023,05:31:55,0.046,0.0,0.022,0.001
18/05/2023,05:32:54,0.048,0.0,0.023,0.001
18/05/2023,05:33:54,0.050,0.0,0.023,0.0
18/05/2023,05:34:54,0.051,0.0,0.024,0.001
18/05/2023,05:35:54,0.052,0.0,0.025,0.001
18/05/2023,05:36:54,0.053,0.0,0.026,0.001
18/05/2023,05:37:54,0.054,0.0,0.027,0.001
18/05/2023,05:38:54,0.057,0.0,0.028,0.001
18/05/2023,05:39:54,0.058,0.0,0.029,0.001
18/05/2023,05:40:54,0.060,0.0,0.03,0.001
18/05/2023,05:41:54,0.061,0.0,0.031,0.001
18/05/2023,05:42:54,0.062,0.0,0.032,0.001
18/05/2023,05:43:54,0.064,0.0,0.033,0.001
18/05/2023,05:44:54,0.066,0.0,0.034,0.001
18/05/2023,05:45:55,0.069,0.0,0.035,0.001
18/05/2023,05:46:54,0.070,0.0,0.036,0.001
18/05/2023,05:47:55,0.071,0.0,0.037,0.001
18/05/2023,05:48:54,0.073,0.0,0.039,0.002
18/05/2023,05:49:55,0.074,0.0,0.04,0.001
18/05/2023,05:50:55,0.076,0.0,0.041,0.001
18/05/2023,05:51:54,0.076,0.0,0.042,0.001
18/05/2023,05:52:55,0.079,0.0,0.044,0.002
18/05/2023,05:53:54,0.081,0.0,0.045,0.001
18/05/2023,05:54:54,0.082,0.0,0.046,0.001
18/05/2023,05:55:54,0.083,0.0,0.048,0.002
18/05/2023,05:56:54,0.087,0.0,0.049,0.001
18/05/2023,05:57:54,0.089,0.0,0.051,0.002
18/05/2023,05:58:54,0.091,0.0,0.052,0.001
18/05/2023,05:59:54,0.093,0.0,0.054,0.002
18/05/2023,06:00:54,0.096,0.0,0.055,0.001
18/05/2023,06:01:54,0.098,0.0,0.057,0.002
18/05/2023,06:02:54,0.100,0.0,0.059,0.002
18/05/2023,06:03:55,0.102,0.0,0.06,0.001
18/05/2023,06:04:55,0.105,0.0,0.062,0.002
18/05/2023,06:05:54,0.107,0.0,0.064,0.002
18/05/2023,06:06:54,0.109,0.0,0.065,0.001
18/05/2023,06:07:54,0.113,0.0,0.067,0.002
18/05/2023,06:08:54,0.114,0.0,0.069,0.002
18/05/2023,06:09:54,0.116,0.0,0.071,0.002
18/05/2023,06:10:54,0.119,0.0,0.073,0.002
18/05/2023,06:11:54,0.121,0.0,0.075,0.002
18/05/2023,06:12:55,0.123,0.0,0.077,0.002
18/05/2023,06:13:54,0.126,0.0,0.079,0.002
18/05/2023,06:14:54,0.128,0.0,0.081,0.002
18/05/2023,06:15:54,0.131,0.0,0.083,0.002
18/05/2023,06:16:54,0.134,0.0,0.086,0.003
18/05/2023,06:17:54,0.136,0.0,0.088,0.002
18/05/2023,06:18:55,0.139,0.0,0.09,0.002
18/05/2023,06:19:55,0.141,0.0,0.093,0.003
18/05/2023,06:20:54,0.145,0.0,0.095,0.002
18/05/2023,06:21:54,0.147,0.0,0.097,0.002
18/05/2023,06:22:55,0.149,0.0,0.1,0.003
18/05/2023,06:23:55,0.152,0.0,0.102,0.002
18/05/2023,06:24:54,0.155,0.0,0.105,0.003
18/05/2023,06:25:54,0.159,0.0,0.107,0.002
18/05/2023,06:26:54,0.162,0.0,0.11,0.003
18/05/2023,06:27:54,0.165,0.0,0.113,0.003
18/05/2023,06:28:54,0.167,0.0,0.116,0.003
18/05/2023,06:29:56,0.171,0.0,0.119,0.003
18/05/2023,06:30:55,0.173,0.0,0.121,0.002
18/05/2023,06:31:54,0.175,0.0,0.124,0.003
18/05/2023,06:32:54,0.178,0.0,0.127,0.003
18/05/2023,06:33:54,0.182,0.0,0.13,0.003
18/05/2023,06:34:54,0.185,0.0,0.133,0.003
18/05/2023,06:35:54,0.188,0.0,0.136,0.003
18/05/2023,06:36:54,0.192,0.0,0.14,0.004
18/05/2023,06:37:55,0.195,0.0,0.143,0.003
18/05/2023,06:38:55,0.199,0.0,0.146,0.003
18/05/2023,06:39:54,0.201,0.0,0.149,0.003
18/05/2023,06:40:54,0.204,0.0,0.153,0.004
18/05/2023,06:41:54,0.207,0.0,0.156,0.003
18/05/2023,06:42:54,0.205,0.0,0.16,0.004
18/05/2023,06:43:54,0.206,0.0,0.163,0.003
18/05/2023,06:44:54,0.210,0.0,0.166,0.003
18/05/2023,06:45:55,0.215,0.0,0.17,0.004
18/05/2023,06:46:55,0.219,1.0,0.174,0.004
18/05/2023,06:47:54,0.226,1.0,0.177,0.003
18/05/2023,06:48:54,0.230,1.0,0.181,0.004
18/05/2023,06:49:54,0.234,1.0,0.185,0.004
18/05/2023,06:50:54,0.240,1.0,0.189,0.004
18/05/2023,06:51:54,0.242,1.0,0.193,0.004
18/05/2023,06:52:54,0.246,1.0,0.197,0.004
18/05/2023,06:53:54,0.250,1.0,0.201,0.004
18/05/2023,06:54:54,0.255,1.0,0.205,0.004
18/05/2023,06:55:54,0.257,1.0,0.21,0.005
18/05/2023,06:56:55,0.261,1.0,0.214,0.004
18/05/2023,06:57:54,0.267,1.0,0.218,0.004
18/05/2023,06:59:17,0.272,1.0,0.224,0.006
18/05/2023,07:00:54,0.279,1.0,0.232,0.008
18/05/2023,07:01:54,0.282,1.0,0.237,0.005
18/05/2023,07:02:55,0.287,1.0,0.241,0.004
18/05/2023,07:03:56,0.293,1.0,0.246,0.005
18/05/2023,07:04:56,0.298,1.0,0.251,0.005
18/05/2023,07:05:54,0.302,1.0,0.256,0.005
18/05/2023,07:06:54,0.307,1.0,0.261,0.005
18/05/2023,07:07:54,0.312,1.0,0.266,0.005
18/05/2023,07:08:54,0.316,1.0,0.272,0.006
18/05/2023,07:09:55,0.320,1.0,0.277,0.005
18/05/2023,07:10:55,0.325,1.0,0.282,0.005
18/05/2023,07:11:54,0.327,1.0,0.288,0.006
18/05/2023,07:12:54,0.333,1.0,0.293,0.005
18/05/2023,07:13:54,0.326,1.0,0.299,0.006
18/05/2023,07:14:54,0.327,1.0,0.304,0.005
18/05/2023,07:15:55,0.330,1.0,0.309,0.005
18/05/2023,07:16:55,0.335,1.0,0.315,0.006
18/05/2023,07:17:55,0.339,1.0,0.321,0.006
18/05/2023,07:18:54,0.357,1.0,0.327,0.006
18/05/2023,07:19:55,0.364,1.0,0.333,0.006
18/05/2023,07:20:55,0.371,1.0,0.339,0.006
18/05/2023,07:21:54,0.375,1.0,0.345,0.006
18/05/2023,07:22:54,0.380,1.0,0.351,0.006
18/05/2023,07:23:55,0.370,1.0,0.357,0.006
18/05/2023,07:24:54,0.387,1.0,0.364,0.007
18/05/2023,07:25:54,0.392,1.0,0.37,0.006
18/05/2023,07:26:55,0.399,1.0,0.377,0.007
18/05/2023,07:27:55,0.404,1.0,0.384,0.007
18/05/2023,07:28:54,0.407,1.0,0.39,0.006
18/05/2023,07:29:54,0.413,1.0,0.397,0.007
18/05/2023,07:30:54,0.418,1.0,0.404,0.007
18/05/2023,07:31:54,0.423,1.0,0.411,0.007
18/05/2023,07:32:55,0.428,1.0,0.418,0.007
18/05/2023,07:33:54,0.433,1.0,0.425,0.007
18/05/2023,07:34:55,0.437,1.0,0.433,0.008
18/05/2023,07:35:55,0.443,1.0,0.44,0.007
18/05/2023,07:36:54,0.449,1.0,0.447,0.007
18/05/2023,07:37:55,0.453,1.0,0.455,0.008
18/05/2023,07:38:54,0.459,1.0,0.463,0.008
18/05/2023,07:39:54,0.463,1.0,0.47,0.007
18/05/2023,07:40:54,0.470,1.0,0.478,0.008
18/05/2023,07:41:55,0.475,1.0,0.486,0.008
18/05/2023,07:42:55,0.481,1.0,0.494,0.008
18/05/2023,07:43:55,0.488,1.0,0.502,0.008
18/05/2023,07:44:54,0.494,1.0,0.51,0.008
18/05/2023,07:45:55,0.497,1.0,0.518,0.008
18/05/2023,07:46:55,0.501,1.0,0.527,0.009
18/05/2023,07:47:54,0.491,1.0,0.535,0.008
18/05/2023,07:48:54,0.477,1.0,0.543,0.008
18/05/2023,07:49:54,0.513,1.0,0.551,0.008
18/05/2023,07:50:54,0.497,1.0,0.559,0.008
18/05/2023,07:51:54,0.484,1.0,0.568,0.009
18/05/2023,07:52:55,0.509,1.0,0.576,0.008
18/05/2023,07:53:55,0.493,1.0,0.584,0.008
18/05/2023,07:54:54,0.520,1.0,0.593,0.009
18/05/2023,07:55:54,0.563,1.0,0.602,0.009
18/05/2023,07:56:55,0.511,1.0,0.611,0.009
18/05/2023,07:57:55,0.520,1.0,0.619,0.008
18/05/2023,07:58:55,0.530,1.0,0.628,0.009
18/05/2023,07:59:55,0.554,1.0,0.637,0.009
18/05/2023,08:00:55,0.534,1.0,0.646,0.009
18/05/2023,08:01:54,0.530,1.0,0.655,0.009
18/05/2023,08:02:55,0.542,1.0,0.664,0.009
18/05/2023,08:03:55,0.553,1.0,0.673,0.009
18/05/2023,08:04:55,0.558,1.0,0.682,0.009
18/05/2023,08:05:54,0.570,1.0,0.692,0.01
18/05/2023,08:06:54,0.580,1.0,0.701,0.009
18/05/2023,08:07:55,0.578,1.0,0.711,0.01
18/05/2023,08:08:55,0.575,1.0,0.72,0.009
18/05/2023,08:09:54,0.564,1.0,0.73,0.01
18/05/2023,08:10:54,0.580,1.0,0.74,0.01
18/05/2023,08:11:54,0.599,1.0,0.749,0.009
18/05/2023,08:12:54,0.663,2.0,0.76,0.011
18/05/2023,08:13:55,0.606,1.0,0.77,0.01
18/05/2023,08:14:55,0.632,1.0,0.78,0.01
18/05/2023,08:15:55,0.612,1.0,0.791,0.011
18/05/2023,08:16:55,0.613,1.0,0.801,0.01
18/05/2023,08:17:54,0.631,1.0,0.811,0.01
18/05/2023,08:18:54,0.652,1.0,0.822,0.011
18/05/2023,08:19:55,0.666,2.0,0.833,0.011
18/05/2023,08:20:55,0.690,2.0,0.844,0.011
18/05/2023,08:21:54,0.645,1.0,0.855,0.011
18/05/2023,08:22:54,0.671,2.0,0.866,0.011
18/05/2023,08:23:54,0.694,2.0,0.878,0.012
18/05/2023,08:24:54,0.679,2.0,0.889,0.011
18/05/2023,08:25:54,0.691,2.0,0.901,0.012
18/05/2023,08:26:55,0.684,2.0,0.913,0.012
18/05/2023,08:27:55,0.670,2.0,0.924,0.011
18/05/2023,08:28:57,0.663,2.0,0.935,0.011
18/05/2023,08:29:55,0.669,2.0,0.946,0.011
18/05/2023,08:30:55,0.657,2.0,0.957,0.011
18/05/2023,08:31:55,0.654,2.0,0.968,0.011
18/05/2023,08:32:55,0.671,2.0,0.979,0.011
18/05/2023,08:33:54,0.672,2.0,0.99,0.011
18/05/2023,08:34:55,0.679,2.0,1.001,0.011
18/05/2023,08:35:55,0.680,2.0,1.013,0.012
18/05/2023,08:36:54,0.685,2.0,1.024,0.011
18/05/2023,08:37:55,0.694,2.0,1.036,0.012
18/05/2023,08:38:56,0.697,2.0,1.048,0.012
18/05/2023,08:39:55,0.699,2.0,1.059,0.011
18/05/2023,08:40:55,0.692,2.0,1.07,0.011
18/05/2023,08:41:55,0.694,2.0,1.082,0.012
18/05/2023,08:42:54,0.694,2.0,1.094,0.012
18/05/2023,08:43:55,0.693,2.0,1.105,0.011
18/05/2023,08:44:55,0.691,2.0,1.117,0.012
18/05/2023,08:45:55,0.702,2.0,1.128,0.011
18/05/2023,08:46:54,0.714,2.0,1.14,0.012
18/05/2023,08:47:54,0.715,2.0,1.152,0.012
18/05/2023,08:48:54,0.723,2.0,1.164,0.012
18/05/2023,08:49:55,0.715,2.0,1.176,0.012
18/05/2023,08:50:55,0.721,2.0,1.188,0.012
18/05/2023,08:51:54,0.727,2.0,1.2,0.012
18/05/2023,08:52:55,0.730,2.0,1.212,0.012
18/05/2023,08:53:55,0.731,2.0,1.224,0.012
18/05/2023,08:54:54,0.735,2.0,1.237,0.013
18/05/2023,08:55:54,0.738,2.0,1.249,0.012
18/05/2023,08:56:55,0.750,2.0,1.261,0.012
18/05/2023,08:57:55,0.760,2.0,1.274,0.013
18/05/2023,08:58:55,0.780,2.0,1.287,0.013
18/05/2023,08:59:54,0.769,2.0,1.3,0.013
18/05/2023,09:00:55,0.778,2.0,1.313,0.013
18/05/2023,09:01:55,0.778,2.0,1.325,0.012
18/05/2023,09:02:55,0.793,2.0,1.339,0.014
18/05/2023,09:03:55,0.825,2.0,1.352,0.013
18/05/2023,09:04:55,0.827,2.0,1.366,0.014
18/05/2023,09:05:55,0.827,2.0,1.38,0.014
18/05/2023,09:06:55,0.849,2.0,1.394,0.014
18/05/2023,09:07:55,0.857,2.0,1.408,0.014
18/05/2023,09:08:55,0.982,2.0,1.423,0.015
18/05/2023,09:09:54,1.047,2.0,1.439,0.016
18/05/2023,09:10:54,1.108,3.0,1.457,0.018
18/05/2023,09:11:54,1.143,3.0,1.475,0.018
18/05/2023,09:12:55,1.149,3.0,1.493,0.018
18/05/2023,09:13:54,1.158,3.0,1.513,0.02
18/05/2023,09:14:55,1.167,3.0,1.532,0.019
18/05/2023,09:15:55,1.179,3.0,1.551,0.019
18/05/2023,09:16:55,1.182,3.0,1.571,0.02
18/05/2023,09:17:54,1.104,3.0,1.591,0.02
18/05/2023,09:18:55,1.203,3.0,1.61,0.019
18/05/2023,09:19:55,1.215,3.0,1.63,0.02
18/05/2023,09:20:54,1.222,3.0,1.65,0.02
18/05/2023,09:21:55,1.231,3.0,1.67,0.02
18/05/2023,09:22:55,1.237,3.0,1.691,0.021
18/05/2023,09:23:55,1.248,3.0,1.712,0.021
18/05/2023,09:24:54,1.256,3.0,1.732,0.02
18/05/2023,09:25:54,1.266,3.0,1.753,0.021
18/05/2023,09:26:55,1.267,3.0,1.775,0.022
18/05/2023,09:27:55,1.278,3.0,1.797,0.022
18/05/2023,09:28:54,1.273,3.0,1.817,0.02
18/05/2023,09:29:55,1.280,3.0,1.838,0.021
18/05/2023,09:30:55,1.274,3.0,1.86,0.022
18/05/2023,09:31:55,1.279,3.0,1.88,0.02
18/05/2023,09:32:55,1.309,3.0,1.902,0.022
18/05/2023,09:33:55,1.316,3.0,1.924,0.022
18/05/2023,09:34:55,1.322,3.0,1.946,0.022
18/05/2023,09:35:55,1.346,3.0,1.968,0.022
18/05/2023,09:36:55,1.350,3.0,1.991,0.023
18/05/2023,09:37:55,1.362,3.0,2.013,0.022
18/05/2023,09:38:55,1.368,3.0,2.036,0.023
18/05/2023,09:39:55,1.377,3.0,2.06,0.024
18/05/2023,09:40:55,1.355,3.0,2.083,0.023
18/05/2023,09:41:54,1.114,3.0,2.102,0.019
18/05/2023,09:42:55,1.170,3.0,2.121,0.019
18/05/2023,09:43:55,1.202,3.0,2.14,0.019
18/05/2023,09:44:55,1.227,3.0,2.161,0.021
18/05/2023,09:45:55,1.256,3.0,2.181,0.02
18/05/2023,09:46:55,1.245,3.0,2.202,0.021
18/05/2023,09:47:54,1.285,3.0,2.223,0.021
18/05/2023,09:48:54,1.308,3.0,2.246,0.023
18/05/2023,09:49:55,1.290,3.0,2.267,0.021
18/05/2023,09:50:55,1.330,3.0,2.288,0.021
18/05/2023,09:51:55,1.235,3.0,2.309,0.021
18/05/2023,09:52:55,1.306,3.0,2.331,0.022
18/05/2023,09:53:54,1.367,3.0,2.353,0.022
18/05/2023,09:54:55,1.391,3.0,2.376,0.023
18/05/2023,09:55:54,1.362,3.0,2.399,0.023
18/05/2023,09:56:55,1.486,3.0,2.423,0.024
18/05/2023,09:57:56,1.479,3.0,2.448,0.025
18/05/2023,09:58:55,1.488,3.0,2.472,0.024
18/05/2023,09:59:55,1.500,3.0,2.496,0.024
18/05/2023,10:00:55,1.523,4.0,2.521,0.025